www.pogodaiklimat.ru

Погода и климат >> Архив погоды >> Южная Африка >> Пеннингтон


ПОГОДА в Пеннингтоне

  • Прогноз погоды в Пеннингтоне
  • Монитор погоды в Пеннингтоне

АРХИВ ПОГОДЫ в Пеннингтоне

Время (UTC), дата Ветер
(напр.,м/с)
 
Видим.   Явления Облачность Т
(С)
Тd
(С)
f
(%)
Тe
(С)
Тes
(С)
Комфортность P
(гПа)
Po
(гПа)
Тmin
(С)
Tmax
(С)
R
(мм)
R24
(мм)
S
(см)
03 15.08 СЗ 4 н/о н/о +15.0 +8.9 67 +14 +14 1031.0 1029.2 +14.8 +23.1
06 15.08 СЗ 2 н/о н/о +17.2 +10.6 65 +18 +18 1031.5 1029.7 +14.7
09 15.08 СВ 4 н/о н/о +22.2 +13.9 59 +25 +25 комфорт 1031.1 1029.4 +14.7 +22.9
12 15.08 СВ 6 н/о н/о +21.8 +14.8 64 +25 +25 комфорт 1027.5 1025.8 +14.7 +22.9
15 15.08 СВ 5 н/о н/о +20.0 +14.4 70 +22 +22 комфорт 1025.9 1024.2 +19.8 +22.9
18 15.08 СВ 2 н/о н/о +17.4 +12.7 74 +18 +18 1025.6 1023.8 +17.4 +22.9
21 15.08 СЗ 2 н/о н/о +16.2 +12.7 80 +17 +17 1024.1 1022.3 +16.2 +22.9
00 16.08 З 3 н/о н/о +13.5 +11.0 85 +12 +12 1022.0 1020.2 +13.3 +22.9
03 16.08 С 1 н/о н/о +12.8 +10.3 85 +13 +13 1020.6 1018.8 +12.3 +22.9
06 16.08 штиль 0 н/о н/о +17.0 +12.9 77 +17 +17 1020.6 1018.8 +12.3
09 16.08 В 2 н/о н/о +24.8 +17.6 64 +29 +29 душно 1020.6 1018.9 +12.3 +24.8
12 16.08 СВ 4 н/о н/о +24.0 +17.1 65 +28 +28 душно 1017.7 1016.0 +12.3 +25.1
15 16.08 СВ 3 н/о н/о +22.0 +16.3 70 +26 +26 душно 1016.0 1014.3 +21.9 +25.1
18 16.08 ЮЗ 5 н/о н/о +20.1 +16.4 79 +23 +23 комфорт 1021.4 1019.7 +20.0 +25.1
21 16.08 З 4 н/о н/о +18.5 +13.6 73 +19 +19 1023.3 1021.6 +18.5 +25.1
00 17.08 З 3 н/о н/о +17.0 +12.1 73 +17 +17 1024.0 1022.2 +17.0 +25.1
03 17.08 З 3 н/о н/о +15.5 +10.1 70 +15 +15 1024.5 1022.7 +15.4 +25.1
06 17.08 З 3 н/о н/о +18.3 +9.7 57 +19 +19 1026.9 1025.1 +15.4
09 17.08 Ю 7 н/о н/о +21.2 +15.6 70 +24 +24 комфорт 1028.2 1026.5 +15.4 +22.3
12 17.08 Ю 6 н/о н/о +16.9 +14.5 86 +16 +16 1027.7 1025.9 +15.4 +22.3 0.4
15 17.08 Ю 4 н/о н/о +16.5 +14.5 88 +16 +16 1027.8 1026.0 +16.3 +22.3
18 17.08 Ю 2 н/о н/о +15.5 +13.7 89 +15 +15 1029.1 1027.3 +15.4 +22.3 4
21 17.08 СЗ 2 н/о н/о +15.0 +13.5 91 +15 +15 1028.2 1026.4 +15.0 +22.3
00 18.08 СВ 3 н/о н/о +15.7 +14.4 92 +15 +15 1026.8 1025.0 +14.9 +22.3 6
03 18.08 С 2 н/о н/о +15.4 +14.2 93 +15 +15 1024.6 1022.8 +14.9 +22.3
06 18.08 С 2 н/о н/о +15.8 +14.3 91 +16 +16 1024.2 1022.4 +14.9 9
09 18.08 СВ 5 н/о н/о +18.6 +15.3 81 +19 +19 1022.4 1020.7 +14.9 +18.6
12 18.08 СВ 7 н/о н/о +20.4 +16.6 79 +23 +23 комфорт 1018.7 1017.0 +14.9 +20.4
15 18.08 СВ 5 н/о н/о +20.0 +16.6 81 +23 +23 комфорт 1017.1 1015.4 +19.9 +21.1
18 18.08 СВ 3 н/о н/о +19.6 +17.0 85 +22 +22 комфорт 1017.2 1015.5 +19.1 +21.1
21 18.08 С 2 н/о н/о +18.4 +16.2 87 +20 +20 1015.9 1014.2 +18.4 +21.1
00 19.08 СВ 3 н/о н/о +17.3 +15.6 90 +17 +17 1012.3 1010.6 +17.1 +21.1
03 19.08 Ю 6 н/о н/о +18.7 +15.9 84 +19 +19 1015.2 1013.5 +16.1 +21.1
06 19.08 ЮЗ 6 н/о н/о +19.4 +14.0 71 +21 +21 комфорт 1019.4 1017.7 +16.1
09 19.08 Ю 8 н/о н/о +20.4 +13.9 66 +22 +22 комфорт 1021.5 1019.8 +16.1 +21.3
12 19.08 Ю 8 н/о н/о +20.5 +13.0 62 +22 +22 комфорт 1021.6 1019.9 +16.1 +21.7 0.2
15 19.08 Ю 8 н/о н/о +19.0 +13.0 68 +19 +19 1023.3 1021.6 +19.0 +21.7
18 19.08 ЮЗ 4 н/о н/о +18.7 +11.6 63 +19 +19 1026.3 1024.5 +18.6 +21.7 0.2
21 19.08 ЮЗ 7 н/о н/о +16.8 +11.7 72 +16 +16 1028.2 1026.4 +16.4 +21.7
00 20.08 З 2 н/о н/о +14.8 +10.0 73 +15 +15 1028.6 1026.8 +14.6 +21.7 0.2
03 20.08 З 3 н/о н/о +13.5 +6.4 62 +13 +13 1028.5 1026.7 +13.1 +21.7
06 20.08 З 4 н/о н/о +16.9 +7.0 52 +17 +17 1029.6 1027.8 +13.1 0.2
09 20.08 Ю 7 н/о н/о +20.1 +11.7 58 +21 +21 комфорт 1030.7 1029.0 +13.1 +20.1
12 20.08 Ю 6 н/о н/о +20.2 +13.2 64 +22 +22 комфорт 1029.7 1028.0 +13.1 +20.7
15 20.08 Ю 5 н/о н/о +18.5 +13.0 70 +19 +19 1029.9 1028.1 +18.4 +20.7
18 20.08 З 2 н/о н/о +16.8 +11.9 73 +17 +17 1031.0 1029.2 +16.7 +20.7
21 20.08 СЗ 3 н/о н/о +15.9 +11.7 76 +16 +16 1031.3 1029.5 +15.6 +20.7
00 21.08 СЗ 3 н/о н/о +14.3 +10.3 77 +13 +13 1031.0 1029.2 +14.3 +20.7
03 21.08 СЗ 3 н/о н/о +14.2 +9.8 75 +13 +13 1030.5 1028.7 +13.8 +20.7
06 21.08 СЗ 2 н/о н/о +15.7 +11.3 75 +16 +16 1031.5 1029.7 +13.2
09 21.08 В 3 н/о н/о +21.7 +15.6 68 +25 +25 комфорт 1031.6 1029.9 +13.2 +21.7
12 21.08 СВ 4 н/о н/о +21.4 +14.6 65 +24 +24 комфорт 1028.7 1027.0 +13.2 +23.2
15 21.08 СВ 5 н/о н/о +18.9 +14.0 73 +20 +20 1028.1 1026.3 +18.9 +23.2
18 21.08 С 2 н/о н/о +18.6 +13.9 74 +20 +20 1028.1 1026.3 +18.4 +23.2
21 21.08 С 3 н/о н/о +18.4 +13.5 73 +19 +19 1027.0 1025.2 +18.3 +23.2
00 22.08 С 2 н/о н/о +15.8 +11.4 75 +16 +16 1024.9 1023.1 +15.8 +23.2

 

Местоположение метеостанции Пеннингтон (Южная Африка): широта -30.39 долгота 30.69 высота над уровнем моря 15 м.

В архиве по умолчанию представлена погода в Пеннингтоне за последнюю неделю. Архивные данные за месяц целиком и за предыдущие месяцы, начиная с января 2011 года, Вы можете получить, выбрав интересующий диапазон дат из раскрывающегося списка и нажав кнопку "Ввод!".


*Определитесь, кто Вы:
робот инопланетянин человек

Внимание! Время в таблицах - всемирное. Для получения местного времени необходимо прибавить поправку, которая равна 2 ч.

Смотрите также архив погоды в соседних городах и на ближайших метеорологических станциях:

Погода в Дурбане (Южная Африка) (54 км)
Погода в Паддоке (Южная Африка) (57 км)
Погода в Маргите (Южная Африка) (62 км)
Погода в Иксопо (Южная Африка) (65 км)
Погода в Аэропорту Вирджиния (Южная Африка) (78 км)
Погода в Маунт Эджком (Южная Африка) (84 км)
Погода в Порт-Эдварде (Южная Африка) (87 км)
Погода в Питермарицбург аэропорту (Южная Африка) (87 км)
Погода в Питермарицбурге (Южная Африка) (89 км)
Погода в Аэропорту Кинг Шака (Южная Африка) (97 км)

Пояснения к столбцам:

Ветер - указаны скорость ветра в м/с - средняя за 10 мин, порывы в срок и между сроками (в фигурных скобках) и направление, откуда дует ветер: С - северный, СВ - северо-восточный, В - восточный, ЮВ - юго-восточный, Ю - южный, ЮЗ - юго-западный, З - западный, СЗ - северо-западный.
Видимость - горизонтальная дальность видимости в метрах или километрах. При видимости от 1 до 10 км при отсутствии осадков обычно наблюдается дымка, при ухудшении видимости до 1 км и менее - туман. В сухую погоду видимость может ухудшаться дымом, пылью или мглою.
Явления - указаны атмосферные явления, наблюдавшиеся в срок или в последний час перед сроком; фигурными скобками обозначены явления, наблюдавшиеся между сроками (за 1-3 часа до срока); квадратными скобками обозначены град или гололедные отложения с указанием их диаметра в мм.
Облачность - указаны через наклонную черту общая и нижняя облачность в баллах и высота нижней границы облаков в метрах; квадратными скобками обозначены формы облаков: Ci - перистые, Cs - перисто-слоистые, Cc - перисто-кучевые, Ac - высококучевые, As - высокослоистые, Sc - слоисто-кучевые, Ns - слоисто-дождевые, Cu - кучевые, Cb - кучево-дождевые. Подробнее классификацию облаков см. в Атласе облаков (PDF).
T - Температура воздуха - температура, измеренная на высоте 2 м над землей.
Td - Температура точки росы - температура, при понижении до которой содержащийся в воздухе водяной пар достигнет насыщения.
f - Относительная влажность воздуха - влажноcть воздуха, измеренная на высоте 2 м над землей.
Te - Эффективная температура - температура, которую ощущает одетый по сезону человек в тени. Характеристика душности погоды. При расчете учитывается влияние влажности воздуха и скорости ветра на теплоощущения человека.
Tes - Эффективная температура на солнце - температура, которую ощущает человек, с поправкой на солнечный нагрев. Характеристика знойности погоды. Зависит от высоты солнца над горизонтом, облачности и скорости ветра. Ночью, в пасмурную погоду, а также при ветре 12 м/с и более поправка равна нулю.
P - Атмосферное давление - приведенное к уровню моря атмосферное давление.
Po - Атмосферное давление - измеренное на уровне метеостанции атмосферное давление.
Tmin - Минимальная температура - минимум температуры воздуха на высоте 2 м над землей.
Tmax - Максимальная температура - максимум температуры воздуха на высоте 2 м над землей.
R - Количество осадков - Количество выпавших осадков за период времени, мм. При наведении курсора мыши на число - период времени, за который выпало указанное количество осадков.
R24 - Количество осадков - Количество выпавших осадков за 24 часа, мм.
S - Снежный покров - Высота снежного покрова, см. При наведении курсора мыши на число - состояние снежного покрова и степень покрытия местности в баллах.